Regional Weather Roundup
Issued by NWS Columbia, SC

Home | Current Version | Previous Version | Text Only | Print | Product List | Glossary On
Versions: 1 2 3 4 5 6 7 8 9 10 11 12 13 14 15 16 17 18 19 20 21 22 23 24 25 26 27
000
ASUS42 KCAE 272310
RWRCAE
REGIONAL WEATHER ROUNDUP
NATIONAL WEATHER SERVICE COLUMBIA SC
700 PM EDT WED JUL 27 2016

NOTE: "FAIR" INDICATES FEW OR NO CLOUDS BELOW 12,000 FEET WITH NO
SIGNIFICANT WEATHER AND/OR OBSTRUCTIONS TO VISIBILITY.

NOT ALL STATIONS ARE QUALITY CONTROLLED BY THE NATIONAL
WEATHER SERVICE. USE DATA WITH CAUTION...ESPECIALLY
DEWPOINT OBSERVATIONS.

SCZ001>056-GAZ040-063>065-077-280000-
...UPSTATE SOUTH CAROLINA...

CITY           SKY/WX    TMP DP  RH WIND       PRES   REMARKS
ANDERSON       SUNNY     93  68  43 SW17      29.97S HX  97
LIBERTY        PTCLDY    90  73  57 W7        29.96S HX  97
SPARTANBURG    SUNNY     93  66  40 SW10      29.94S HX  96
CLEMSON        SUNNY     93  70  46 SW6       29.98S HX  99
GREENVILLE     SUNNY     94  67  41 SW12      29.97S HX  97
GREENWOOD      SUNNY     93  68  43 W13       29.97F HX  97
GREER          SUNNY     92  69  47 SW12      29.95S HX  97
ROCK HILL      SUNNY     96  68  39 SW10      29.93F HX 101
CHESTER        CLEAR     91  64  40 SW3       29.94S
LAURENS        CLEAR     93  70  46 SW14      29.95S HX  99


...CENTRAL SOUTH CAROLINA...

CITY           SKY/WX    TMP DP  RH WIND       PRES   REMARKS
COLUMBIA APT   MOSUNNY   95  70  44 SW12      29.92F HX 101
COLUMBIA OWENS PTSUNNY   96  70  42 SW10      29.94S HX 102
MCENTIRE ANGB  MOSUNNY   95  72  47 S12       29.94F HX 103
ORANGEBURG     SUNNY     94  72  48 SW10      29.95F HX 102
SUMTER SHAW    SUNNY     95  72  46 SW10      29.91F HX 103
NEWBERRY       CLEAR     95  72  46 SW7       29.97S HX 103
AIKEN          FAIR      91  68  46 SW10      30.00S HX  95
MANNING        FAIR      91  72  52 S6        29.94F HX  98
LANCASTER      PTCLDY    99  66  34 SW14      29.92F HX 102
WINNSBORO      CLEAR     95  68  41 S9        29.94S HX  99


...EASTERN AND COASTAL SOUTH CAROLINA...

CITY           SKY/WX    TMP DP  RH WIND       PRES   REMARKS
MYRTLE BEACH   MOSUNNY   90  73  58 SW16      29.95F HX  98
N MYRTLE BCH   SUNNY     87  78  74 SW18      29.93F HX 100
CONWAY         FAIR      91  73  55 SW7       29.93F HX 100
MARION           N/A     93  72  49 SW10      29.92F HX 100
HARTSVILLE     FAIR      91  72  52 S9        29.92F HX  98
FLORENCE       SUNNY     94  72  48 SW10      29.93F HX 102
DARLINGTON     SUNNY     93  76  57 S9        29.93S HX 105
CHARLESTON APT MOSUNNY   91  77  63 S12       29.96F HX 104
MOUNT PLEASANT FAIR      90  79  70 S8        29.96F HX 105
WALTERBORO     PTCLDY    95  70  43 SW8       29.97S HX 101
BEAUFORT       MOSUNNY   94  71  47 SW12      29.97S HX 101


...EASTERN GEORGIA...

CITY           SKY/WX    TMP DP  RH WIND       PRES   REMARKS
AUGUSTA BUSH F SUNNY     96  67  38 W14       29.95S HX 100
AUGUSTA DANIEL SUNNY     95  67  39 SW8       29.97F HX  99
WASHINGTON     FAIR      97  75  49 SW7       29.98F HX 109
CLAXTON        MOCLDY    95  73  47 W5        29.97F HX 104
STATESBORO     SUNNY     94  74  51 W5        29.97F HX 105
SAVANNAH       MOSUNNY   95  68  41 SW7       29.97F HX  99


...SOUTHERN NORTH CAROLINA...

CITY           SKY/WX    TMP DP  RH WIND       PRES   REMARKS
CHARLOTTE      MOSUNNY   96  67  38 SW7       29.93F HX 100
MONROE         SUNNY     97  65  34 SW13      29.92F HX  99
ROCKINGHAM     CLEAR     93  76  57 S9        29.91F HX 105
RUTHERFORDTON    N/A     92  68  46 SW3       29.96S HX  96
ASHEVILLE      SUNNY     85  67  54 S7        30.04S

$$




USA.gov is the U.S. government's official web portal to all federal, state and local government web resources and services.